Location: Arborea
(39.7744°N, 8.5819°E)
Time: 18:04:12
(UTC+00:00)

deb Ariane - Visible Passes

Search period start: 11 August 2022 00:00
Search period end: 21 August 2022 00:00
Orbit: 768 x 943 km, 98.6° (Epoch: 10 August)

Date Brightness Start Highest point End Pass type
(mag) Time Alt. Az. Time Alt. Az. Time Alt. Az.
11 Aug ? 19:32:05 10° S 19:37:52 55° W 19:43:29 10° NNW visible
12 Aug ? 19:21:38 10° S 19:27:30 67° WSW 19:33:12 10° NNW visible
13 Aug ? 19:11:15 10° SSE 19:17:09 82° WSW 19:22:52 10° NNW visible
14 Aug ? 19:00:56 10° SSE 19:06:49 83° ENE 19:12:30 10° NNW visible
14 Aug ? 20:45:35 10° WSW 20:48:09 13° W 20:50:41 10° WNW visible
15 Aug ? 18:50:41 10° SSE 18:56:29 68° ENE 19:02:05 10° N visible
15 Aug ? 20:34:10 10° SW 20:37:41 16° W 20:41:08 10° NW visible
16 Aug ? 18:40:30 10° SSE 18:46:10 56° ENE 18:51:38 10° N visible
16 Aug ? 20:23:03 10° SW 20:27:14 20° W 20:31:18 10° NW visible
17 Aug ? 20:12:08 10° SSW 20:16:47 25° W 20:21:20 10° NW visible
18 Aug ? 20:01:21 10° SSW 20:06:21 30° W 20:11:14 10° NW visible
19 Aug ? 19:50:39 10° SSW 19:55:57 37° W 20:01:05 10° NNW visible
20 Aug ? 19:40:03 10° S 19:45:33 45° W 19:50:52 10° NNW visible
